Location: Colossi of Memnon
(25.7167°N, 32.6167°E)
Time: 11:57:49
(UTC+00:00)

Envisat - Pass Details

Date: 17 September 2021
Orbit: 764 x 766 km, 98.2° (Epoch: 23 October)

Event Time Altitude Azimuth Distance (km) Brightness Sun altitude
Rises 02:19:51 0° 22° (NNE) 3,229 6.7 -17.9°
Reaches altitude 10° 02:22:18 10° 30° (NNE) 2,300 6.0 -17.3°
Maximum altitude 02:27:02 39° 99° (E) 1,126 4.4 -16.3°
Drops below altitude 10° 02:31:44 10° 168° (SSE) 2,290 5.5 -15.2°
Sets 02:34:10 0° 176° (S) 3,212 6.2 -14.7°
